Weather in Schefferville

Canada     54°48′10″N   66°49′04″W
temp.,
°C
wind,
m/s
gust,
m/s
humid.,
%
clouds,
%
prec.,
mm/h
press.,
hPa
HPBL,
m
19 september, sun
sun1923:00+3wnw10167654 0.0 1014791
02:00+3w10168099 0.0 1016800
05:00+2wnw9158454 0.0 1018736
08:00+1wnw101274100 0.0 1020942
11:00+3wnw8959100 0.0 10201078
14:00+7nw81047100 0.0 10201436
17:00+6nw6850100 0.0 10211395
20:00+2nw336790 0.0 102332
20 september, mon
mon2023:000nw117461 0.0 102310
02:00+1sw11715 0.0 102410
05:00+2s226766 0.0 102414
08:00+4sse466736 0.0 1023234
11:00+5sse61169100 0.0 1022341
14:00+9s91465100 0.0 1018564
17:00+10s71372100 0.0 1016324
20:00+13wsw91878100 0.0 1015494
21 september, tue
tue2123:00+13wsw10188297 0.1 1014377
02:00+12sw9197912 0.1 1014359
05:00+12sw1021690 0.0 1014330
08:00+12sw102066100 0.0 1013426
11:00+16sw112054100 0.0 1012654
14:00+18sw111850100 0.0 1010936
17:00+18sw122069100 0.1 10081080
20:00+17sw122078100 0.2 1008988
22 september, wed
wed2223:00+18sw14228197 0.1 10071141
02:00+10wnw111785100 0.4 1012642
05:00+5wnw8137922 0.0 1017667
08:00+4wnw81074100 0.0 1020812
11:00+6wnw786399 0.0 1020943
14:00+7wnw6661100 0.0 1020957
17:00+5wnw4579100 0.8 1021728
20:00+5wnw3575100 0.9 1021735
23 september, thu
thu2323:00+4nnw3580100 0.2 1022521
02:00+3nnw3483100 0.4 1022451
05:00+3nnw3585100 0.3 1022519
08:00+3nnw4682100 0.3 1024569
11:00+5nnw666482 0.0 10251074
14:00+6nw665260 0.1 10251296
17:00+5nnw77515 0.0 10261195
20:00+2nnw46675 0.0 1029114